Preview of NWS' New Version of Forecast
This preview is not operational and should not be used for support decisions.

Regional Weather Roundup (RWR)

Issued by National Weather Service (NWS)

                            
000
ASUS45 KCYS 190110
RWRWY 

WYOMING REGIONAL WEATHER ROUNDUP
NATIONAL WEATHER SERVICE CHEYENNE WY
700 PM MDT SUN AUG 18 2019

NOTE:  "FAIR" INDICATES FEW OR NO CLOUDS BELOW 12,000 FEET
WITH NO SIGNIFICANT WEATHER AND/OR OBSTRUCTIONS TO VISIBILITY.

WYZ001-190200-
YELLOWSTONE NATIONAL PARK
  
CITY           SKY/WX    TMP DP  RH WIND       PRES   REMARKS
LK YELLOWSTONE   N/A     67  34  29 MISG      30.19F                  
W YELLOWSTONE  NOT AVBL                                               

$$
WYZ002>013-054>058-071-098>099-190200-
NORTHERN WYOMING
  
CITY           SKY/WX    TMP DP  RH WIND       PRES   REMARKS
JACKSON        FAIR      77  30  17 SW16G23   30.09S                  
CODY           FAIR      80  40  23 E14       29.92R                  
GREYBULL       FAIR      85  40  20 W5        29.84S                  
WORLAND        FAIR      81  41  24 E6        29.86S                  
SHERIDAN       FAIR      82  47  29 S6        29.88S                  
BUFFALO        FAIR      77  46  33 W5        29.97R                  
GILLETTE       FAIR      78  55  44 E7        29.92S                  
HULETT         FAIR      73  54  49 S3        29.94                   
NEWCASTLE      FAIR      77  45  31 W5        29.93                   

$$
WYZ014>020-022>026-101>103-190200-
CENTRAL WYOMING
  
CITY           SKY/WX    TMP DP  RH WIND       PRES   REMARKS
BIG PINEY      FAIR      79  32  18 NW9       30.14R                  
PINEDALE       FAIR      75  30  19 NW12      30.16                   
DUBOIS         FAIR      73  27  17 NW10G25   30.11                   
LANDER         FAIR      86  32  14 NW9       29.98R                  
RIVERTON       FAIR      87  29  12 NW13      29.96R                  
CASPER         FAIR      85  27  12 NW16      29.95S                  
DOUGLAS        FAIR      86  29  12 NW12      29.94R                  

$$
WYZ021-027>030-104>119-190200-
SOUTHERN WYOMING
  
CITY           SKY/WX    TMP DP  RH WIND       PRES   REMARKS
EVANSTON       FAIR      79  24  13 W16G24    30.16F                  
KEMMERER       FAIR      77  23  13 W16G22    30.17                   
ROCK SPRINGS   FAIR      81  26  13 NW17G26   30.11S                  
DIXON          FAIR      83  27  13 S7        30.12S                  
RAWLINS        FAIR      83  25  12 W16       30.11S                  
SARATOGA       FAIR      79  30  17 W10       30.14S                  
LARAMIE        FAIR      80  26  13 W15       30.14R                  
CHEYENNE       FAIR      83  49  30 S7        30.05R                  
TORRINGTON     FAIR      82  55  39 E14       29.88R                  
PINE BLUFFS    FAIR      82  46  28 SW10      29.98R                  

$$